Temperature
30 31 31 31 31 31 31 31 30 29 28 27 27 28 27 27 26 25 24 23 22 22 21 20 19 19 18 18 18 17 17 17 16 16 16 16 16 16 16 16 16 16 16 16
29 31 31 31 31 31 31 31 30 30 28 28 28 28 27 26 26 25 24 23 22 21 20 20 19 19 18 18 17 17 17 16 16 16 16 15 16 16 15 15 15 15 15 15
28 30 30 29 30 30 30 31 30 29 29 28 28 27 26 26 25 24 23 22 21 21 20 19 19 18 18 17 17 16 16 16 16 15 15 15 15 15 15 15 15 15 15 15
28 28 27 29 31 30 30 30 30 29 29 29 27 26 25 25 24 24 23 22 21 20 20 19 18 18 17 17 17 16 16 15 15 15 15 15 15 14 14 14 14 14 14 14
27 27 28 29 30 30 29 29 29 29 29 28 27 26 25 24 23 23 22 21 20 20 19 18 18 17 17 17 16 16 15 15 15 15 14 14 14 14 14 14 14 14 14 14
27 26 26 28 30 30 29 27 28 28 28 27 26 25 24 23 22 22 21 20 20 19 19 18 17 17 16 16 16 15 15 15 14 14 14 14 14 14 14 14 13 13 13 14
26 26 27 27 29 29 27 26 27 26 26 25 24 24 22 22 21 21 20 20 19 19 18 17 17 16 16 16 15 15 15 14 14 14 14 14 14 14 14 13 13 13 13 13
26 25 25 27 27 26 25 26 26 25 24 23 23 22 22 21 20 20 19 19 18 18 17 17 16 16 16 15 15 15 14 14 14 14 14 14 14 14 13 13 13 13 13 13
25 25 25 26 26 25 25 25 25 25 24 23 22 22 21 20 20 19 19 18 18 17 17 16 16 16 15 15 15 14 14 14 14 14 14 14 14 14 14 14 13 13 13 13
25 25 26 25 25 25 25 24 24 24 23 23 22 21 20 20 19 19 18 18 17 17 16 16 15 15 15 14 14 14 14 14 14 14 14 14 13 13 13 13 13 13 13 12
25 25 25 25 24 24 24 23 23 23 22 22 21 20 20 19 18 18 18 17 17 16 16 16 15 15 15 14 14 14 14 14 14 14 14 14 13 13 13 13 13 13 13 13
24 24 24 24 23 23 23 22 22 22 22 21 21 20 19 18 18 17 17 17 16 16 16 15 15 15 15 14 14 14 14 14 14 14 14 13 13 13 13 13 13 13 13 13
24 23 23 23 23 23 22 22 22 21 21 20 20 19 19 18 17 17 17 16 16 16 15 15 15 14 14 14 14 13 13 13 13 14 14 13 13 13 13 13 13 13 13 12
22 22 22 22 22 22 22 21 21 21 20 20 19 19 18 17 17 17 16 16 16 15 15 15 14 14 14 14 13 13 13 13 13 13 13 13 13 13 13 13 13 13 12 12
22 22 22 21 21 21 21 21 20 20 19 19 18 18 17 17 16 16 16 15 15 15 15 14 14 14 13 13 13 13 13 13 13 13 13 13 13 13 13 13 13 12 12 12
21 21 21 21 21 20 20 20 20 19 19 18 18 17 17 16 16 16 15 15 15 14 14 14 13 13 13 13 13 13 13 13 13 13 13 13 13 13 13 13 12 12 12 12
21 21 21 20 20 20 20 20 19 19 18 18 17 17 16 16 15 15 15 14 14 14 14 13 13 13 13 12 12 12 12 13 13 13 12 13 13 13 12 12 12 12 12 11
20 20 20 20 20 20 19 19 19 18 18 17 17 16 16 15 15 14 14 14 14 13 13 13 13 12 12 12 12 12 12 12 12 12 12 12 12 12 12 12 12 12 11 11
20 20 20 19 19 19 19 18 18 18 17 17 16 16 15 15 14 14 13 13 13 13 13 13 13 12 12 12 12 12 12 12 12 12 12 12 12 12 11 11 11 11 11 11
19 19 19 19 19 18 18 18 17 17 16 16 16 15 15 14 14 14 13 13 13 13 13 13 12 12 12 12 12 12 12 12 12 12 12 11 11 11 11 11 11 11 11 11
19 19 18 18 18 18 17 17 17 16 16 15 15 15 14 14 14 13 13 13 13 13 13 12 12 12 12 12 12 12 12 12 12 11 11 11 11 11 11 11 11 10 10 10
18 18 18 17 17 17 16 16 16 16 15 15 15 14 14 14 13 13 13 13 13 13 12 12 12 12 11 11 11 11 11 11 11 11 11 11 11 10 10 10 10 10 10 10
17 17 16 16 16 16 16 16 15 15 15 14 14 14 14 13 13 13 13 13 13 12 12 12 12 11 11 11 11 11 11 11 11 11 11 10 10 10 10 10 10 10 10 9
16 16 16 16 16 16 15 15 15 15 14 14 14 14 13 13 13 13 13 12 12 12 12 11 11 11 11 11 11 10 10 10 10 10 10 10 10 10 10 10 10 9 9 9
15 15 15 15 15 15 15 15 15 14 14 14 14 14 13 13 13 13 12 12 12 12 11 11 11 11 11 11 10 10 10 10 10 10 10 10 10 9 9 9 9 9 9 8
15 15 15 15 15 15 15 15 15 14 14 14 14 14 13 13 13 13 12 12 12 11 11 11 11 11 11 10 10 10 10 10 10 9 9 9 9 9 9 9 9 9 8 8
15 15 15 15 15 15 15 15 15 15 14 14 14 13 13 13 13 12 12 12 11 11 11 11 11 10 10 10 10 10 9 9 9 9 9 9 8 8 8 8 8 8 8 8
Wind_Speed
11 9 9 11 10 10 9 9 7 2 2 3 1 4 5 6 7 7 7 6 6 5 5 4 3 3 3 3 3 3 2 3 3 2 1 1 0 1 1 1 1 1 2 2
12 12 11 11 10 9 8 8 6 3 4 4 2 4 6 6 6 6 5 5 5 5 5 4 3 2 3 3 2 2 2 3 2 2 1 0 0 0 0 1 2 2 2 2
12 11 10 10 8 7 7 6 6 3 4 6 5 5 5 5 5 5 5 5 5 4 4 3 3 3 2 3 3 3 2 2 2 1 1 1 1 2 2 2 2 2 2 3
10 9 11 5 2 4 4 3 3 1 4 6 7 6 6 5 5 4 5 5 5 4 4 4 4 4 3 3 3 2 2 1 1 1 1 1 1 1 1 1 1 1 1 2
9 11 9 6 4 4 3 2 2 1 3 6 7 6 5 5 5 6 6 6 5 4 5 4 4 4 3 3 2 1 1 1 1 1 0 1 1 1 1 1 1 1 1 1
9 11 9 4 4 5 2 2 4 3 4 4 3 2 3 5 6 6 7 6 5 5 5 5 4 3 2 2 2 1 1 1 1 1 1 1 0 0 1 1 2 1 1 1
11 10 5 4 4 4 4 2 4 4 5 5 4 4 5 6 6 6 6 5 5 5 5 4 4 3 2 2 1 1 1 1 1 1 1 1 0 1 1 2 2 2 2 1
8 8 4 6 4 2 4 4 4 5 6 7 7 7 6 6 5 5 5 4 5 4 4 4 4 3 2 2 2 1 1 0 0 1 2 1 0 1 2 3 3 2 1 1
2 2 1 2 3 4 3 2 2 3 5 5 4 4 5 5 4 4 4 3 3 4 3 3 3 2 2 1 1 1 1 1 1 1 2 1 2 2 3 2 2 1 2 2
2 1 0 1 2 3 3 2 2 2 3 3 4 3 4 4 3 3 3 3 2 3 2 2 2 2 2 1 1 1 1 1 1 2 2 1 1 1 1 2 2 2 2 2
4 3 2 1 2 2 3 2 1 2 2 2 3 3 3 3 3 2 3 2 2 2 2 2 2 1 1 1 1 1 2 2 2 2 2 1 1 1 1 1 1 2 2 2
5 3 3 1 1 1 1 0 0 1 1 1 2 3 3 3 3 3 2 2 2 1 0 1 1 1 0 0 1 2 3 3 3 2 1 1 1 1 1 2 2 2 2 2
1 2 2 0 0 1 1 1 1 2 2 2 2 2 3 3 3 3 2 2 2 1 1 1 1 1 0 1 1 2 3 4 4 3 2 2 2 2 2 2 3 3 4 4
2 2 1 0 1 1 1 1 2 2 2 2 2 3 3 3 2 2 1 1 1 1 1 0 0 1 1 1 2 3 4 4 4 3 3 2 3 3 3 3 3 3 4 7
1 2 2 2 2 2 2 2 2 2 2 2 2 3 3 3 2 1 1 0 0 1 1 1 1 2 2 2 3 4 5 4 3 3 3 3 4 4 3 3 3 2 2 3
2 2 2 3 3 3 3 3 3 3 3 2 2 2 3 3 2 0 0 0 1 2 1 1 2 2 3 3 3 3 3 5 4 4 4 4 3 4 3 3 4 3 2 2
3 4 4 4 4 4 4 3 3 3 3 3 2 2 2 2 2 0 1 1 1 2 2 1 2 2 3 3 4 5 4 4 5 5 4 4 4 4 3 4 4 4 3 2
5 5 5 4 4 4 3 3 2 2 2 3 2 2 2 2 2 1 1 1 2 2 2 1 1 3 3 3 3 5 5 4 3 4 3 3 4 3 4 4 5 5 3 3
3 3 2 3 3 2 2 2 2 2 2 2 2 2 2 2 1 1 2 2 2 2 2 1 3 4 3 2 4 5 5 4 4 3 3 3 4 4 4 4 4 5 5 3
3 3 3 2 2 2 2 1 2 3 2 2 2 2 1 1 1 1 2 2 2 2 1 2 2 3 3 2 5 5 4 4 5 4 4 4 4 4 4 4 5 5 5 4
2 3 4 4 3 2 3 3 2 3 2 2 2 1 1 1 1 1 2 2 1 1 1 2 2 1 2 3 5 5 5 5 5 5 4 4 4 4 5 5 5 5 5 4
1 2 3 3 3 3 3 3 3 2 2 1 1 1 1 1 2 2 1 1 1 1 2 2 1 1 3 5 5 4 4 5 5 5 5 4 5 5 5 5 5 4 4 4
2 3 2 3 3 3 2 2 2 2 2 1 1 1 1 1 2 2 2 1 0 1 2 1 1 2 4 5 4 4 4 5 6 5 5 4 4 4 4 4 4 4 4 4
2 3 2 2 2 2 1 2 2 2 2 1 1 1 0 1 1 1 0 2 2 1 1 0 1 2 3 3 3 4 4 4 5 5 5 4 4 3 3 3 3 4 4 4
2 2 2 1 2 2 2 2 2 2 2 2 1 1 1 1 0 1 1 1 2 2 1 1 2 3 4 3 2 3 4 4 5 5 4 4 5 4 3 3 3 3 4 4
2 2 1 1 1 2 3 3 2 2 3 2 1 1 1 1 1 1 1 1 0 0 1 1 2 3 3 2 2 2 3 3 4 4 4 4 5 5 4 4 4 3 3 3
3 2 2 3 3 3 3 2 2 2 2 1 1 0 0 0 0 1 1 1 1 0 1 1 1 2 2 2 2 3 3 3 4 4 4 4 4 5 5 5 4 4 4 4
Wind_Direction
278 276 276 265 261 262 267 280 282 241 191 149 148 118 110 109 114 117 118 114 103 100 99 94 101 109 92 80 72 73 77 86 86 91 94 81 64 26 5 359 358 10 354 348
277 275 275 272 264 264 263 267 266 247 143 132 144 110 101 101 109 117 117 115 106 98 98 97 101 110 112 102 98 92 89 81 77 76 64 41 68 46 33 22 12 12 8 8
273 276 272 262 261 267 279 279 273 270 139 139 120 95 90 95 102 110 122 120 111 110 109 109 116 113 109 104 97 97 89 88 87 90 70 35 22 34 22 16 17 13 11 14
266 271 264 262 262 256 275 298 327 50 117 113 112 102 92 95 98 104 114 118 121 122 112 94 80 89 92 93 93 99 98 81 63 75 68 44 42 40 6 351 355 0 7 6
260 261 260 254 258 244 245 273 313 77 98 107 112 120 100 81 90 105 104 102 103 100 95 88 76 76 81 79 85 88 98 85 15 17 30 41 25 10 353 337 334 324 332 355
254 266 268 282 348 358 301 226 31 49 86 99 116 150 97 81 89 97 98 98 97 97 94 90 81 74 78 80 66 52 57 55 351 340 335 317 303 315 309 296 281 281 300 300
250 259 264 335 337 312 283 65 40 48 68 75 69 78 103 98 87 89 98 104 105 101 95 87 76 69 72 73 53 39 57 83 13 339 288 268 234 242 256 256 260 257 260 259
246 259 265 357 357 10 52 43 40 56 76 83 88 96 107 107 101 99 100 107 110 100 95 94 86 73 71 59 45 38 23 43 25 317 299 299 277 255 249 252 257 256 271 277
274 241 55 42 45 58 64 31 42 69 91 99 101 103 111 114 111 106 101 97 105 116 104 95 91 79 82 54 42 32 20 349 330 307 296 283 245 269 270 271 284 291 278 281
260 183 333 11 38 32 31 40 40 61 94 113 116 118 122 128 124 116 110 104 101 109 109 99 93 89 96 71 51 32 335 294 270 257 263 303 307 321 335 335 328 323 314 313
250 238 233 213 23 33 40 36 48 58 93 128 135 134 132 129 126 119 110 104 92 83 100 103 97 101 98 62 351 303 289 275 254 243 225 226 338 337 356 340 265 268 299 329
262 292 271 269 25 46 93 12 32 137 120 124 137 139 141 137 136 136 130 127 131 132 195 158 140 153 120 139 289 288 282 280 278 266 231 213 196 254 323 261 253 217 214 229
264 281 275 265 242 256 182 164 157 151 145 129 116 118 132 135 142 149 153 150 147 177 221 218 162 192 201 233 257 269 285 291 291 293 273 245 235 242 249 259 268 260 249 237
24 351 327 252 253 280 214 181 142 121 122 121 115 119 130 130 134 145 143 140 164 192 218 246 293 293 288 270 273 273 269 271 281 283 283 281 266 256 252 254 254 254 249 240
198 228 234 221 223 220 211 180 159 148 136 121 118 129 136 134 132 129 110 127 223 254 267 283 297 309 308 283 275 282 284 277 276 281 278 274 275 277 274 267 271 263 254 249
237 223 213 212 213 206 199 194 184 166 157 146 146 149 151 151 150 140 116 118 281 285 284 286 286 291 295 289 274 271 277 288 280 277 277 281 278 281 293 300 297 291 279 281
225 227 226 220 209 206 206 206 200 184 171 161 161 162 145 141 152 164 289 298 296 282 272 263 271 282 279 282 286 280 277 273 268 271 278 286 292 300 301 298 295 293 296 293
226 227 228 221 217 207 206 212 201 173 165 161 161 161 158 156 173 192 275 289 278 276 278 270 287 287 281 288 295 292 285 281 279 279 286 292 296 293 287 294 301 299 295 283
215 210 207 208 210 205 200 206 181 147 144 154 165 167 161 156 156 191 238 261 268 264 277 303 274 266 277 305 305 285 287 286 281 283 286 284 287 292 300 304 303 299 298 298
202 177 184 192 183 174 166 137 118 116 117 124 134 138 136 133 175 228 229 229 243 276 297 309 289 296 296 318 308 292 294 294 294 291 289 289 289 293 296 295 292 292 294 297
184 173 171 159 151 147 141 132 129 128 122 123 129 151 172 210 241 234 250 254 238 8 302 278 264 304 319 313 289 288 298 302 300 299 301 299 294 292 292 294 294 293 292 295
133 120 122 124 127 127 115 118 124 123 118 117 128 151 208 251 261 252 241 258 257 38 293 290 315 17 327 304 290 294 300 302 301 300 300 299 293 288 285 288 294 299 301 300
101 96 96 109 109 103 107 127 132 125 123 120 129 192 220 250 263 265 267 257 204 281 293 337 4 341 307 291 295 303 302 303 305 300 294 291 289 290 291 293 299 304 307 306
115 115 119 120 115 117 137 143 122 121 133 137 142 131 189 232 269 291 354 114 104 156 306 50 219 279 278 281 300 310 308 306 305 304 307 308 303 296 289 293 298 303 306 309
133 141 150 169 176 182 179 180 165 162 177 172 177 167 214 232 293 4 35 105 155 194 258 228 231 254 266 278 303 317 318 320 319 316 314 316 321 323 317 309 309 309 312 313
169 198 173 235 246 233 210 203 205 202 210 206 194 180 182 142 114 82 53 4 27 107 291 283 266 254 271 290 295 302 306 304 307 307 314 316 316 317 316 319 320 317 311 310
193 190 191 222 232 238 235 221 218 217 209 177 210 193 139 94 91 71 33 353 325 297 308 292 287 285 291 295 291 290 296 303 308 307 307 308 310 309 312 320 324 323 325 331
Height
1479 1475 1475 1476 1475 1473 1476 1478 1486 1489 1491 1492 1492 1492 1494 1496 1499 1502 1506 1509 1511 1513 1514 1515 1516 1516 1516 1517 1517 1517 1516 1516 1516 1516 1516 1516 1516 1516 1515 1515 1514 1513 1512 1512
1483 1476 1474 1475 1473 1472 1474 1474 1478 1482 1489 1488 1490 1492 1495 1498 1500 1503 1507 1509 1511 1513 1514 1515 1515 1516 1516 1516 1516 1516 1515 1516 1516 1515 1515 1515 1514 1514 1514 1513 1512 1511 1511 1510
1490 1479 1478 1484 1474 1474 1475 1472 1475 1482 1485 1486 1490 1493 1496 1499 1501 1504 1507 1509 1511 1512 1513 1514 1515 1515 1515 1515 1515 1515 1515 1514 1514 1514 1514 1514 1513 1513 1512 1511 1510 1510 1509 1508
1488 1490 1501 1481 1468 1470 1473 1474 1474 1478 1480 1485 1490 1495 1498 1500 1502 1504 1507 1509 1511 1512 1513 1514 1515 1515 1515 1515 1515 1514 1514 1513 1513 1513 1512 1512 1512 1511 1510 1510 1509 1508 1507 1506
1490 1494 1489 1477 1470 1470 1475 1480 1477 1479 1482 1486 1491 1495 1499 1501 1503 1505 1507 1509 1510 1512 1513 1513 1514 1514 1514 1514 1514 1513 1513 1512 1512 1512 1511 1510 1510 1508 1508 1508 1507 1507 1506 1505
1489 1498 1499 1483 1471 1471 1475 1484 1481 1481 1484 1487 1491 1496 1501 1502 1504 1505 1507 1509 1510 1511 1512 1513 1513 1514 1513 1513 1513 1512 1512 1511 1511 1510 1509 1509 1508 1507 1507 1506 1506 1505 1504 1503
1489 1493 1488 1479 1475 1475 1488 1492 1485 1485 1487 1490 1494 1498 1502 1503 1504 1506 1507 1509 1510 1510 1511 1512 1512 1513 1512 1512 1512 1512 1511 1510 1510 1509 1508 1508 1507 1506 1506 1505 1505 1504 1502 1501
1487 1496 1496 1481 1478 1484 1490 1488 1488 1489 1491 1494 1497 1500 1502 1503 1505 1507 1508 1509 1510 1510 1511 1511 1511 1511 1511 1511 1511 1511 1510 1509 1509 1508 1507 1507 1506 1505 1504 1504 1503 1502 1501 1500
1485 1489 1486 1484 1485 1486 1488 1489 1490 1492 1494 1496 1498 1500 1502 1504 1506 1507 1508 1509 1510 1510 1510 1510 1510 1510 1510 1511 1510 1509 1508 1508 1507 1507 1506 1505 1504 1503 1503 1503 1502 1501 1501 1500
1482 1483 1483 1485 1486 1487 1488 1490 1491 1492 1494 1497 1499 1501 1503 1505 1506 1507 1508 1509 1509 1510 1510 1510 1510 1510 1509 1509 1509 1508 1507 1506 1506 1505 1505 1504 1504 1502 1502 1501 1500 1500 1499 1498
1482 1482 1484 1485 1487 1488 1489 1491 1492 1494 1495 1497 1499 1501 1502 1504 1505 1507 1507 1508 1509 1509 1509 1509 1509 1509 1508 1508 1507 1507 1506 1506 1505 1504 1503 1502 1502 1501 1500 1499 1498 1497 1497 1496
1482 1483 1484 1486 1487 1489 1490 1492 1493 1494 1496 1497 1498 1500 1501 1503 1504 1506 1506 1507 1507 1508 1508 1508 1507 1507 1507 1506 1506 1505 1505 1504 1504 1503 1502 1501 1500 1499 1498 1498 1496 1495 1494 1494
1481 1482 1483 1485 1487 1489 1490 1492 1493 1494 1496 1497 1498 1499 1500 1502 1503 1504 1505 1505 1506 1506 1506 1506 1506 1505 1505 1504 1504 1503 1503 1502 1502 1501 1500 1499 1498 1497 1496 1495 1494 1493 1492 1491
1481 1483 1484 1486 1488 1489 1490 1492 1493 1494 1496 1497 1497 1499 1500 1501 1502 1503 1503 1503 1504 1504 1504 1504 1504 1503 1503 1502 1501 1501 1500 1500 1499 1499 1498 1497 1496 1495 1494 1493 1491 1490 1489 1488
1481 1483 1484 1486 1487 1489 1490 1491 1492 1494 1495 1496 1497 1498 1499 1500 1501 1501 1502 1502 1502 1502 1502 1501 1501 1501 1501 1500 1499 1498 1498 1497 1497 1496 1495 1494 1493 1493 1492 1491 1489 1487 1486 1485
1481 1482 1484 1485 1487 1488 1489 1491 1492 1493 1494 1495 1496 1497 1497 1498 1499 1500 1500 1500 1500 1500 1499 1499 1499 1498 1498 1498 1497 1496 1495 1494 1493 1493 1492 1492 1491 1490 1489 1488 1487 1485 1484 1482
1481 1482 1483 1485 1486 1487 1489 1490 1491 1492 1493 1494 1495 1496 1496 1496 1497 1498 1499 1499 1498 1498 1497 1497 1497 1496 1496 1495 1494 1494 1493 1491 1490 1489 1489 1488 1488 1487 1486 1485 1484 1483 1482 1480
1480 1481 1482 1483 1485 1486 1488 1489 1490 1491 1492 1493 1494 1494 1495 1495 1495 1496 1496 1496 1496 1496 1496 1495 1494 1494 1493 1492 1492 1491 1490 1489 1488 1487 1486 1485 1484 1484 1483 1482 1481 1480 1478 1477
1478 1480 1481 1482 1483 1485 1486 1488 1489 1490 1490 1491 1492 1492 1493 1494 1494 1494 1494 1494 1494 1493 1493 1493 1492 1491 1491 1490 1489 1488 1488 1486 1485 1484 1483 1482 1481 1481 1480 1479 1477 1476 1475 1474
1477 1479 1480 1481 1482 1484 1485 1486 1487 1488 1489 1490 1491 1491 1491 1492 1492 1492 1492 1492 1492 1492 1491 1490 1489 1489 1488 1487 1487 1486 1485 1484 1483 1481 1480 1479 1478 1477 1476 1475 1474 1473 1471 1470
1477 1478 1479 1480 1482 1483 1484 1485 1487 1488 1488 1489 1490 1490 1490 1490 1491 1490 1490 1490 1489 1489 1488 1488 1487 1486 1486 1485 1484 1483 1483 1481 1480 1479 1477 1476 1475 1473 1473 1472 1471 1469 1468 1467
1476 1477 1479 1480 1481 1483 1483 1484 1486 1487 1487 1488 1488 1489 1489 1489 1489 1489 1488 1488 1487 1486 1486 1485 1485 1483 1483 1482 1482 1481 1480 1479 1477 1476 1474 1473 1472 1470 1469 1468 1467 1466 1464 1463
1477 1478 1479 1480 1481 1482 1483 1484 1485 1486 1486 1487 1487 1487 1487 1487 1487 1486 1486 1485 1484 1483 1483 1482 1481 1481 1480 1479 1479 1478 1477 1476 1474 1473 1471 1470 1468 1467 1466 1465 1463 1462 1461 1460
1477 1478 1479 1480 1481 1482 1483 1484 1485 1485 1486 1486 1486 1486 1485 1485 1485 1484 1483 1482 1482 1481 1480 1479 1479 1478 1477 1477 1476 1474 1473 1472 1471 1470 1468 1466 1465 1464 1463 1461 1460 1459 1458 1456
1477 1478 1479 1480 1481 1482 1482 1483 1484 1484 1485 1485 1485 1484 1484 1484 1483 1482 1482 1480 1479 1479 1478 1477 1476 1475 1474 1474 1473 1472 1471 1469 1468 1467 1465 1463 1462 1461 1460 1458 1457 1456 1455 1453
1477 1478 1478 1479 1480 1480 1481 1482 1483 1483 1483 1483 1483 1483 1483 1482 1481 1481 1480 1479 1478 1477 1476 1475 1474 1473 1473 1472 1471 1470 1468 1467 1466 1464 1462 1461 1460 1458 1457 1455 1454 1453 1452 1451
1477 1477 1478 1478 1479 1480 1480 1481 1481 1481 1481 1481 1481 1481 1481 1480 1480 1479 1478 1477 1476 1475 1475 1473 1472 1471 1470 1470 1469 1468 1466 1465 1463 1462 1460 1459 1457 1456 1455 1453 1451 1450 1449 1447